Location: ??????
(56.0120°N, 39.1740°E)
Time: 06:37:09
(UTC+00:00)

Cosmos 2322 Rocket - Pass Details

Date: 14 April 2026
Orbit: 832 x 849 km, 71.0° (Epoch: 12 May)

Event Time Altitude Azimuth Distance (km) Brightness Sun altitude
Rises 18:02:38 0° 245° (WSW) 3,375 5.7 -12.4°
Reaches altitude 10° 18:05:15 10° 253° (WSW) 2,444 5.1 -12.6°
Maximum altitude 18:10:26 38° 321° (NW) 1,263 3.8 -13.2°
Drops below altitude 10° 18:15:40 10° 29° (NNE) 2,456 4.8 -13.7°
Sets 18:18:18 0° 38° (NE) 3,395 5.4 -14.0°
